Weather in Ibragimovo

Russia / Orenburg Oblast     51°30′26″N   57°26′14″E
temp.,
°C
wind,
m/s
gust,
m/s
humid.,
%
clouds,
%
prec.,
mm/h
press.,
hPa
HPBL,
m
28 february, sun
sun2823:000sw5109899 1.3 1004494
02:000ssw51099100 0.9 1002519
05:000wsw5899100 2.5 1001468
08:00−1sw5999100 1.7 1001473
11:00−1sw71098100 2.9 1000608
14:00−1sw69100100 1.3 1001663
17:00−2wnw5893100 2.1 1003538
20:00−12wsw499799 0.2 1007254
1 march, mon
mon123:00−12wsw4897100 0.4 1010242
02:00−15wsw3698100 0.1 1012161
05:00−17wsw339999 0.2 101453
08:00−17wsw2498100 0.1 1016117
11:00−15wsw359599 0.2 1017277
14:00−14wsw4594100 0.1 1018350
17:00−15wsw4696100 0.1 1019350
20:00−18w3799100 0.1 1020187
2 march, tue
tue223:00−19w2499100 0.2 102176
02:00−19wsw23100100 0.1 102146
05:00−20w34100100 0.1 102171
08:00−22wsw33100100 0.1 102149
11:00−20wsw3799100 0.1 1021268
14:00−18wsw4796100 0.0 1020335
17:00−16sw4896100 0.1 1019351
20:00−18ssw379999 0.0 1017185
3 march, wed
wed323:00−16ssw4997100 0.1 1016235
02:00−11s51395100 0.4 1012416
05:00−6ssw71595100 1.3 1009690
08:00−4ssw81596100 1.4 1007714
11:00−3ssw81496100 3.3 1005901
14:00−2ssw81396100 2.1 1003967
17:00−1sw71195100 3.8 1002884
20:00−3wsw71396100 1.0 1003674
4 march, thu
thu423:00−5w71296100 1.8 1005581
02:00−6w61196100 0.5 1005417
05:00−8w51097100 0.8 1006288
08:00−10w3798100 0.1 1007182
11:00−7w479699 0.2 1009384
14:00−6wnw6892100 0.1 1010695
17:00−7wnw6892100 0.3 1012518
20:00−12wnw51097100 0.1 1015299